[[{"header":{"parameterUnit":"m.s-1","parameterCategory":1,"la1":30.2991,"la2":30.254,"lo1":-89.0895,"lo2":-89.0444,"dy":0.0017,"dx":0.0017,"nx":28,"ny":28,"refTime":"2024-09-29T09:00:00:Z","depth":0,"parameterNumber":2,"parameterNumberName":"U-component_of_WINDS"},"data":[0,0,0,0,0,0,0,0,0,0,0,0,0,0,0,0,0,0,0,0,0,0,0,0,0,0,0,0,0,0,0,0,0,0,0,0,0,0,0,0,0,0,0,0,0,0,0,0,0,0,0,0,0,0,0,0,0,0,1.2495,1.2495,0,1.254,1.2541,1.2541,1.2566,1.2566,1.2566,1.2566,1.2614,1.2616,1.2617,0,0,0,0,0,0,0,0,0,0,0,0,0,1.2433,1.2434,1.2495,1.2496,1.2496,1.254,1.2541,1.2541,1.2566,1.2566,1.2566,1.2566,1.2614,1.2616,1.2617,0,0,0,0,0,0,0,0,0,0,0,0,0,1.2467,1.2434,1.2495,1.2514,1.2516,1.254,1.2541,1.2542,1.2566,1.2566,1.2566,1.2566,1.2614,1.2615,1.2617,1.2627,0,0,1.2623,1.2624,0,0,0,0,0,0,0,0,1.2465,1.2469,1.251,1.2512,1.2515,1.2547,1.2537,1.257,1.2566,1.2547,1.2566,1.2566,1.2592,1.2596,1.2604,1.2629,1.2631,1.2623,1.2624,1.2625,1.2626,0,0,0,0,0,0,0,1.2463,1.2467,1.2513,1.2511,1.2514,1.2521,1.2526,1.2543,1.2569,1.2549,1.255,1.2555,1.2594,1.2602,1.2606,1.2632,1.2623,1.2625,1.2626,1.2627,1.2669,1.2669,0,0,0,0,0,0,1.2457,1.2465,1.2512,1.2514,1.249,1.2522,1.2527,1.2537,1.2568,1.2573,1.2555,1.2556,1.2599,1.2603,1.2607,1.2622,1.2625,1.2627,1.2628,1.2669,1.2669,1.2669,0,0,0,0,0,0,1.2455,1.2461,1.251,1.249,1.2497,1.2523,1.2533,1.2538,1.2547,1.2574,1.2578,1.2559,1.2599,1.2605,1.2622,1.2624,1.2628,1.2629,1.2669,1.2669,1.2669,1.265,0,0,0,0,0,0,1.2454,1.246,1.2463,1.249,1.2498,1.2523,1.2533,1.2539,1.255,1.2551,1.2579,1.2583,1.26,1.2619,1.2624,1.2627,1.2631,1.2669,1.2669,1.2669,1.2651,1.265,1.2649,0,0,0,0,0,1.2451,1.2456,1.2463,1.2469,1.2502,1.2523,1.2527,1.2546,1.2549,1.2554,1.2571,1.2583,1.2623,1.2621,1.2626,1.263,1.2669,1.2669,1.2669,1.2652,1.265,1.2649,0,0,0,0,0,0,1.2429,1.246,1.2468,1.2482,1.2499,1.2527,1.2532,1.2543,1.2561,1.2562,1.2584,1.259,1.2606,1.262,1.2617,1.2642,1.2647,1.2649,1.2632,1.2631,1.263,1.2626,1.2632,0,0,0,0,0,1.2426,1.2439,1.2466,1.2475,1.2484,1.2506,1.2516,1.2529,1.2548,1.2556,1.2574,1.2593,1.2611,1.2622,1.2639,1.2653,1.266,1.2658,1.2657,1.2656,1.2657,1.2667,1.2667,1.267,1.267,1.267,0,0,1.2419,1.2438,1.2445,1.2471,1.2486,1.2501,1.2512,1.2527,1.2538,1.2558,1.2576,1.259,1.2613,1.263,1.2638,1.2641,1.2658,1.2656,1.2655,1.2657,1.2667,1.2667,1.2667,1.267,1.267,1.267,0,0,1.2415,1.2429,1.244,1.2455,1.2477,1.2493,1.2495,1.2521,1.2531,1.2549,1.2565,1.2579,1.2608,1.2624,1.2636,1.2639,1.265,1.2644,1.2638,1.2648,1.2647,1.2647,1.2649,1.265,1.2645,1.2644,1.2644,0,1.2404,1.2425,1.2444,1.2457,1.2469,1.2488,1.2499,1.2513,1.254,1.2549,1.2552,1.2589,1.2606,1.2627,1.2628,1.2636,1.2641,1.2641,1.2646,1.2646,1.2646,1.2648,1.2649,1.2644,1.2644,1.2644,1.2644,0,1.2411,1.2425,1.2431,1.2457,1.2469,1.2481,1.2503,1.2514,1.2526,1.2541,1.256,1.2581,1.2603,1.2609,1.2621,1.2632,1.2634,1.2641,1.2648,1.2645,1.2647,1.2648,1.2642,1.2643,1.2643,1.2643,0,0,1.2393,1.243,1.2431,1.2444,1.2471,1.2483,1.2497,1.2518,1.2527,1.2546,1.2559,1.2583,1.2591,1.2604,1.2618,1.2626,1.2629,1.2633,1.2634,1.2632,1.2644,1.2638,1.2639,1.2636,1.2637,1.2637,1.2642,0,1.2393,1.2418,1.2436,1.2454,1.2469,1.2487,1.2499,1.2518,1.2533,1.2548,1.2565,1.2582,1.259,1.2599,1.2608,1.2626,1.2631,1.2626,1.265,1.265,1.2644,1.264,1.2634,1.2638,1.2643,1.2643,1.2643,0,1.2396,1.2414,1.2433,1.246,1.2466,1.2477,1.2499,1.2513,1.2535,1.2545,1.256,1.2575,1.2592,1.2596,1.2621,1.2617,1.2628,1.2638,1.2639,1.2642,1.2647,1.2644,1.264,1.264,1.2645,1.2645,1.2645,0,1.2382,1.2411,1.2427,1.2437,1.2468,1.2475,1.2488,1.251,1.2522,1.2542,1.255,1.2571,1.2583,1.2599,1.262,1.2621,1.2642,1.2648,1.2652,1.2652,1.2656,1.2656,1.2654,1.2662,1.2662,1.2662,1.2662,0,1.238,1.2392,1.2421,1.2431,1.2445,1.2466,1.2479,1.2495,1.2514,1.2528,1.2546,1.2559,1.2584,1.2601,1.2617,1.2635,1.264,1.265,1.2654,1.2649,1.2647,1.2656,1.2657,1.2662,1.2662,1.2662,1.2662,0,1.2367,1.2387,1.2406,1.2434,1.2441,1.245,1.2475,1.2486,1.2502,1.2519,1.2525,1.255,1.2571,1.2593,1.262,1.2631,1.2649,1.2655,1.2641,1.2644,1.2647,1.2646,1.2651,1.2654,1.2659,1.2659,1.2659,0,1.2365,1.2374,1.2403,1.2414,1.2426,1.2443,1.2455,1.2477,1.2489,1.2516,1.2524,1.2545,1.2564,1.2596,1.2617,1.2639,1.2646,1.2646,1.2649,1.2644,1.2647,1.2646,1.2648,1.2645,1.2645,1.2645,1.2645,0,1.2359,1.2369,1.2386,1.2406,1.2421,1.2438,1.2456,1.2464,1.249,1.2503,1.2524,1.2538,1.2567,1.2588,1.2613,1.2628,1.2641,1.2644,1.2646,1.264,1.2633,1.2638,1.2639,1.2643,1.2644,1.2644,1.2644,1.2644,1.2352,1.2362,1.2384,1.2402,1.2418,1.2435,1.2447,1.2465,1.2482,1.2507,1.2519,1.254,1.2563,1.2597,1.2612,1.263,1.2634,1.2637,1.2637,1.2638,1.2637,1.2629,1.2634,1.2634,1.2634,1.2634,1.2634,0,1.2348,1.2363,1.238,1.2405,1.242,1.2431,1.2452,1.2464,1.2482,1.2502,1.252,1.2544,1.2566,1.2589,1.2612,1.2622,1.2629,1.2627,1.2627,1.2631,1.2632,1.2628,1.2622,1.2622,1.2622,1.2622,1.2622,1.2622,1.2348,1.2365,1.2377,1.2403,1.2418,1.2439,1.245,1.2466,1.2482,1.2509,1.2526,1.2541,1.2564,1.2589,1.2609,1.2616,1.2624,1.2621,1.2629,1.263,1.2631,1.2632,1.2628,1.2622,1.2622,1.2627,1.2627,1.2627]},{"header":{"parameterUnit":"m.s-1","parameterCategory":1,"la1":30.2991,"la2":30.254,"lo1":-89.0895,"lo2":-89.0444,"dy":0.0017,"dx":0.0017,"nx":28,"ny":28,"refTime":"2024-09-29T09:00:00:Z","depth":0,"parameterNumber":3,"parameterNumberName":"V-component_of_WINDS"},"data":[0,0,0,0,0,0,0,0,0,0,0,0,0,0,0,0,0,0,0,0,0,0,0,0,0,0,0,0,0,0,0,0,0,0,0,0,0,0,0,0,0,0,0,0,0,0,0,0,0,0,0,0,0,0,0,0,0,0,1.9935,1.9935,0,1.9969,1.997,1.997,1.9999,2.0,2.0,2.0,2.0032,2.0033,2.0033,0,0,0,0,0,0,0,0,0,0,0,0,0,1.9892,1.9892,1.9935,1.9935,1.9936,1.9969,1.997,1.997,1.9999,2.0,2.0,2.0,2.0032,2.0033,2.0033,0,0,0,0,0,0,0,0,0,0,0,0,0,1.9916,1.9893,1.9935,1.9954,1.9957,1.9969,1.997,1.997,1.9999,2.0,2.0,2.0001,2.0032,2.0033,2.0033,2.0028,0,0,2.0036,2.0036,0,0,0,0,0,0,0,0,1.9915,1.9918,1.9951,1.9953,1.9956,1.9981,1.9966,1.999,1.9999,1.9983,2.0,2.0001,2.0014,2.0017,2.0022,2.003,2.0031,2.0036,2.0036,2.0037,2.0037,0,0,0,0,0,0,0,1.9913,1.9917,1.9948,1.9952,1.9954,1.996,1.9965,1.9971,1.9995,1.9984,1.9987,1.999,2.0016,2.0021,2.0023,2.0032,2.0036,2.0037,2.0037,2.0037,2.0036,2.0036,0,0,0,0,0,0,1.9909,1.9915,1.9947,1.9949,1.9936,1.9961,1.9965,1.9972,1.9995,1.9999,1.999,1.9992,2.0019,2.0022,2.0024,2.0019,2.0037,2.0038,2.0038,2.0037,2.0036,2.0035,0,0,0,0,0,0,1.9908,1.9912,1.9946,1.9933,1.9938,1.9961,1.9968,1.9972,1.9978,2.0,2.0004,1.9991,2.002,2.0023,2.0027,2.0021,2.0038,2.0039,2.0037,2.0036,2.0036,2.0009,0,0,0,0,0,0,1.9907,1.9911,1.991,1.9933,1.9938,1.9949,1.9968,1.9973,1.9979,1.9982,2.0002,2.0006,2.0021,2.0026,2.0028,2.0022,2.0039,2.0038,2.0037,2.0036,2.0011,2.0008,2.0005,0,0,0,0,0,1.9905,1.9901,1.991,1.9914,1.9938,1.9949,1.9952,1.997,1.9979,1.9978,1.9991,2.0005,2.0021,2.0026,2.0029,2.0023,2.0038,2.0037,2.0036,2.0012,2.0008,2.0005,0,0,0,0,0,0,1.9876,1.9904,1.9915,1.9918,1.9931,1.9954,1.9953,1.9966,1.9976,1.9978,1.9999,2.0003,2.0004,2.0014,2.0019,2.0019,2.0031,2.0031,2.0012,2.0009,2.0006,2.0004,2.004,0,0,0,0,0,1.9871,1.9878,1.9902,1.9902,1.9909,1.9929,1.9935,1.9948,1.9962,1.9967,1.9981,1.9993,2.0001,2.0006,2.0014,2.0013,2.0017,2.001,2.0007,2.0004,2.0003,2.0002,1.9999,2.0032,2.0032,2.0032,0,0,1.9858,1.9875,1.9878,1.9897,1.9909,1.9915,1.9934,1.994,1.9944,1.9968,1.9973,1.9983,1.9998,1.9999,2.0,2.0007,1.9996,2.0003,2.0001,2.0001,2.0001,1.9998,1.9995,2.0031,2.0031,2.0031,0,0,1.984,1.9853,1.9855,1.9866,1.9883,1.9897,1.9898,1.9918,1.9927,1.9932,1.9949,1.9954,1.9968,1.9977,1.9984,1.9968,1.998,1.997,1.9954,1.9953,1.9951,1.9948,1.9942,1.994,1.9969,1.9969,1.9969,0,1.9822,1.9833,1.9854,1.9859,1.9866,1.9888,1.9889,1.9899,1.9917,1.9922,1.9929,1.9946,1.9957,1.9961,1.9957,1.9961,1.9962,1.9967,1.995,1.9948,1.9946,1.994,1.9937,1.9967,1.9967,1.9967,1.9968,0,1.981,1.9818,1.9817,1.9835,1.9842,1.9845,1.9865,1.987,1.9882,1.9894,1.9899,1.9914,1.9925,1.9927,1.9938,1.9931,1.9935,1.9946,1.9959,1.9941,1.9936,1.9934,1.9965,1.9966,1.9966,1.9966,0,0,1.9774,1.9804,1.9803,1.9812,1.9832,1.9838,1.9841,1.9853,1.9856,1.9868,1.9871,1.9881,1.9891,1.9898,1.9911,1.991,1.9895,1.9921,1.9922,1.9915,1.9888,1.9879,1.9876,1.9904,1.9904,1.9903,1.9886,0,1.9758,1.9767,1.9785,1.9787,1.9794,1.9814,1.9817,1.9829,1.9841,1.9847,1.986,1.9867,1.988,1.9884,1.9884,1.9897,1.989,1.9899,1.9906,1.9906,1.9901,1.9874,1.9865,1.9848,1.9884,1.9884,1.9884,0,1.9741,1.9752,1.9755,1.9775,1.9778,1.9781,1.9792,1.9799,1.9812,1.9821,1.9829,1.9843,1.9846,1.9859,1.9863,1.9869,1.9873,1.9879,1.9879,1.988,1.9893,1.9873,1.9843,1.984,1.9881,1.9881,1.9881,0,1.9714,1.973,1.9733,1.974,1.9763,1.9764,1.9773,1.9788,1.9793,1.9803,1.9807,1.9817,1.9822,1.9829,1.9845,1.9853,1.9848,1.9862,1.9854,1.9853,1.9852,1.9851,1.9821,1.9855,1.9855,1.9855,1.9855,0,1.9693,1.9694,1.9721,1.9723,1.9725,1.9745,1.9745,1.9756,1.9769,1.9773,1.9791,1.9794,1.9815,1.9821,1.9833,1.9834,1.9837,1.9843,1.9846,1.9841,1.984,1.9843,1.9845,1.9854,1.9854,1.9854,1.9855,0,1.9663,1.9681,1.9687,1.9708,1.9713,1.9713,1.9731,1.9733,1.9746,1.9751,1.9753,1.9772,1.9779,1.9796,1.9808,1.9816,1.9814,1.982,1.9809,1.9811,1.9802,1.9803,1.9772,1.9769,1.9805,1.9805,1.9805,0,1.9649,1.965,1.9672,1.9676,1.9685,1.9692,1.9698,1.9717,1.9723,1.9738,1.9738,1.9747,1.9755,1.9765,1.9779,1.9788,1.9794,1.9783,1.9795,1.979,1.9793,1.9792,1.9792,1.978,1.9779,1.9779,1.9779,0,1.9621,1.963,1.9639,1.965,1.9657,1.9667,1.9677,1.968,1.9702,1.9706,1.9714,1.972,1.9732,1.974,1.975,1.9759,1.9772,1.9775,1.9773,1.9768,1.9761,1.9764,1.9801,1.9775,1.9775,1.9776,1.9776,1.9776,1.9598,1.96,1.9615,1.9624,1.9634,1.9643,1.9647,1.966,1.9667,1.9678,1.9689,1.9696,1.9709,1.9724,1.9732,1.9737,1.9743,1.9741,1.9741,1.974,1.9737,1.9761,1.9739,1.9739,1.9739,1.9739,1.9739,0,1.9571,1.9582,1.959,1.9604,1.9611,1.9623,1.9636,1.964,1.9645,1.9657,1.9664,1.9673,1.968,1.9695,1.9704,1.9705,1.9711,1.9706,1.9706,1.9708,1.9731,1.9731,1.9701,1.9701,1.9701,1.9701,1.9701,1.9701,1.9558,1.9561,1.9572,1.958,1.959,1.9598,1.9603,1.9612,1.9621,1.9629,1.9636,1.9646,1.9659,1.9669,1.9676,1.968,1.9682,1.9675,1.9681,1.9703,1.9706,1.971,1.971,1.9676,1.9676,1.9657,1.9657,1.9657]}]]